sat.trackr.live / text

‹ back to catalog

STARLINK-5699

NORAD 55449 · 2023-015A

PAYLOAD ACTIVE UNKNOWN

§ Identity

Operator
Country
US
Launch date
2023-02-02
Launch site
AFETR
Launch vehicle
Mass (kg)
RCS (m²)

Purposes: comms

External: N2YO · Heavens-Above · Gunter

§ Orbital elements

Epoch: 2026-05-25T04:00:03.998880Z

Period
94.27 min
Inclination
43.0003°
Eccentricity
0.0001252
Mean motion
15.27560776 rev/d
Perigee alt
482.2 km
Apogee alt
484.0 km
Semi-major
6,861.2 km
B*
1.1868e-3
RAAN
257.1363°
Arg perigee
267.5403°
Mean anomaly
126.7365°
Rev number
574

§ Raw data

STARLINK-56991 55449U 23015A   26145.16671295  .00032520  00000+0  11868-2 0  99902 55449  43.0003 257.1363 0001252 267.5403 126.7365 15.27560776  5745

JSON: /api/v1/satellites/55449 · /tle

For live sub-satellite position, see the globe view (requires WebGL).

§ Visibility from observer

Set your observer location to see the next 7 days of passes ≥ 10°. The values pass through the URL so the page stays shareable.

No JS? Fill the form by hand. The geolocation button needs JavaScript.